Wetterdaten: Woche 04.01.16 - 10.01.16 (KW1)
Datum Zeit Temp. I. Temp. A. Feuchte I. Feuchte A. Luftdruck Regen Wind Richtung Sonnenschein UV Solar Taupunkt Windchill Windben
04.01.2016 00:00 23,1 C -6,0 C 51 % 90 % 1002,2 hPa 0,0 l/m 8,1 km/h (2 Bft) O 0,00 h 0,0 UV-I 0 W/m -7,4 C -8,3 C 15,2 km/h (3 Bft)
04.01.2016 01:00 22,9 C -6,2 C 52 % 90 % 1000,8 hPa 0,0 l/m 8,9 km/h (2 Bft) O-NO 0,00 h 0,0 UV-I 0 W/m -7,5 C -9,2 C 15,7 km/h (3 Bft)
04.01.2016 02:00 22,8 C -6,1 C 52 % 90 % 1000,0 hPa 0,0 l/m 6,6 km/h (2 Bft) O-NO 0,00 h 0,0 UV-I 0 W/m -7,5 C -7,3 C 13,0 km/h (3 Bft)
04.01.2016 03:00 22,7 C -6,1 C 52 % 90 % 999,2 hPa 0,0 l/m 7,7 km/h (2 Bft) O 0,00 h 0,0 UV-I 0 W/m -7,4 C -8,0 C 13,5 km/h (3 Bft)
04.01.2016 04:00 22,7 C -6,1 C 52 % 90 % 998,4 hPa 0,0 l/m 7,0 km/h (2 Bft) O-NO 0,00 h 0,0 UV-I 0 W/m -7,5 C -7,7 C 10,6 km/h (2 Bft)
04.01.2016 05:00 22,6 C -6,1 C 53 % 90 % 997,8 hPa 0,0 l/m 7,5 km/h (2 Bft) O-NO 0,00 h 0,0 UV-I 0 W/m -7,4 C -8,2 C 12,7 km/h (3 Bft)
04.01.2016 06:00 22,6 C -5,9 C 53 % 92 % 997,2 hPa 0,0 l/m 6,7 km/h (2 Bft) O-NO 0,00 h 0,0 UV-I 0 W/m -7,1 C -7,3 C 12,7 km/h (3 Bft)
04.01.2016 07:00 22,6 C -5,9 C 53 % 92 % 996,5 hPa 0,0 l/m 6,6 km/h (2 Bft) O 0,00 h 0,0 UV-I 0 W/m -7,0 C -7,2 C 12,7 km/h (3 Bft)
04.01.2016 08:00 22,6 C -5,7 C 53 % 91 % 996,5 hPa 0,0 l/m 5,1 km/h (1 Bft) O 0,00 h 0,0 UV-I 6 W/m -6,9 C -6,3 C 10,5 km/h (2 Bft)
04.01.2016 09:00 22,8 C -5,6 C 54 % 91 % 996,7 hPa 0,2 l/m 2,5 km/h (1 Bft) O 0,00 h 0,0 UV-I 17 W/m -6,8 C -5,6 C 5,7 km/h (1 Bft)
04.01.2016 10:00 23,1 C -5,3 C 54 % 90 % 996,6 hPa 0,0 l/m 2,5 km/h (1 Bft) O-NO 0,00 h 0,0 UV-I 47 W/m -6,7 C -5,4 C 5,1 km/h (1 Bft)
04.01.2016 11:00 22,9 C -4,8 C 51 % 88 % 996,3 hPa 0,0 l/m 1,7 km/h (1 Bft) O 0,00 h 0,0 UV-I 59 W/m -6,4 C -4,8 C 4,5 km/h (1 Bft)
04.01.2016 12:00 22,7 C -4,6 C 48 % 89 % 995,9 hPa 0,2 l/m 4,0 km/h (1 Bft) O-NO 0,00 h 0,0 UV-I 68 W/m -6,2 C -4,8 C 6,6 km/h (2 Bft)
04.01.2016 13:00 22,8 C -4,3 C 48 % 89 % 995,8 hPa 0,0 l/m 1,3 km/h (1 Bft) O-NO 0,00 h 0,0 UV-I 65 W/m -5,9 C -4,4 C 3,6 km/h (1 Bft)
04.01.2016 14:00 23,0 C -4,4 C 49 % 91 % 995,9 hPa 0,0 l/m 0,3 km/h (0 Bft) O-NO 0,00 h 0,0 UV-I 30 W/m -5,6 C -4,4 C 1,1 km/h (1 Bft)
04.01.2016 15:00 23,2 C -4,4 C 49 % 92 % 995,9 hPa 0,0 l/m 2,2 km/h (1 Bft) O-NO 0,00 h 0,0 UV-I 19 W/m -5,5 C -4,4 C 5,1 km/h (1 Bft)
04.01.2016 16:00 23,0 C -4,3 C 47 % 92 % 996,3 hPa 0,4 l/m 0,9 km/h (0 Bft) O-NO 0,00 h 0,0 UV-I 8 W/m -5,4 C -4,3 C 2,5 km/h (1 Bft)
04.01.2016 17:00 22,8 C -4,3 C 45 % 93 % 996,3 hPa 0,2 l/m 1,1 km/h (0 Bft) O-NO 0,00 h 0,0 UV-I 0 W/m -5,3 C -4,3 C 2,6 km/h (1 Bft)
04.01.2016 18:00 22,7 C -4,3 C 45 % 93 % 996,4 hPa 0,4 l/m 1,7 km/h (1 Bft) O-NO 0,00 h 0,0 UV-I 0 W/m -5,3 C -4,3 C 3,7 km/h (1 Bft)
04.01.2016 19:00 22,8 C -4,3 C 46 % 93 % 996,8 hPa 0,2 l/m 0,7 km/h (0 Bft) O-NO 0,00 h 0,0 UV-I 0 W/m -5,2 C -4,3 C 2,3 km/h (1 Bft)
04.01.2016 20:00 23,0 C -4,0 C 46 % 94 % 996,8 hPa 0,0 l/m 0,3 km/h (0 Bft) O-NO 0,00 h 0,0 UV-I 0 W/m -4,9 C -4,0 C 0,6 km/h (0 Bft)
04.01.2016 21:00 22,8 C -3,7 C 45 % 94 % 997,0 hPa 0,4 l/m 0,0 km/h (0 Bft) N 0,00 h 0,0 UV-I 0 W/m -4,6 C -3,7 C 0,0 km/h (0 Bft)
04.01.2016 22:00 22,9 C -3,4 C 46 % 94 % 997,2 hPa 1,0 l/m 0,0 km/h (0 Bft) N 0,00 h 0,0 UV-I 0 W/m -4,2 C -3,4 C 0,0 km/h (0 Bft)
04.01.2016 23:00 22,8 C -3,2 C 46 % 95 % 997,2 hPa 0,2 l/m 0,0 km/h (0 Bft) N 0,00 h 0,0 UV-I 0 W/m -3,9 C -3,2 C 0,0 km/h (0 Bft)
05.01.2016 00:00 22,8 C -3,0 C 48 % 95 % 997,3 hPa 0,0 l/m 0,0 km/h (0 Bft) O 0,00 h 0,0 UV-I 0 W/m -3,7 C -3,0 C 0,2 km/h (0 Bft)
05.01.2016 01:00 22,5 C -2,5 C 45 % 96 % 997,2 hPa 0,0 l/m 0,0 km/h (0 Bft) N 0,00 h 0,0 UV-I 0 W/m -3,1 C -2,5 C 0,0 km/h (0 Bft)
05.01.2016 02:00 22,3 C -2,0 C 46 % 96 % 997,1 hPa 0,0 l/m 0,0 km/h (0 Bft) N 0,00 h 0,0 UV-I 0 W/m -2,6 C -2,0 C 0,0 km/h (0 Bft)
05.01.2016 03:00 22,3 C -1,6 C 47 % 96 % 997,0 hPa 0,2 l/m 0,0 km/h (0 Bft) N 0,00 h 0,0 UV-I 0 W/m -2,1 C -1,6 C 0,0 km/h (0 Bft)
05.01.2016 04:00 22,2 C -1,2 C 48 % 96 % 997,0 hPa 0,0 l/m 0,0 km/h (0 Bft) N 0,00 h 0,0 UV-I 0 W/m -1,8 C -1,2 C 0,0 km/h (0 Bft)
05.01.2016 05:00 22,4 C -1,0 C 49 % 96 % 996,8 hPa 0,0 l/m 0,0 km/h (0 Bft) N 0,00 h 0,0 UV-I 0 W/m -1,6 C -1,0 C 0,0 km/h (0 Bft)
05.01.2016 06:00 22,9 C -0,8 C 49 % 96 % 997,0 hPa 0,0 l/m 0,0 km/h (0 Bft) N 0,00 h 0,0 UV-I 0 W/m -1,4 C -0,8 C 0,0 km/h (0 Bft)
05.01.2016 07:00 23,2 C -0,4 C 49 % 97 % 997,2 hPa 0,0 l/m 0,0 km/h (0 Bft) N 0,00 h 0,0 UV-I 0 W/m -0,8 C -0,4 C 0,0 km/h (0 Bft)
05.01.2016 08:00 23,4 C 0,0 C 49 % 97 % 997,5 hPa 0,0 l/m 0,0 km/h (0 Bft) N 0,00 h 0,0 UV-I 4 W/m -0,4 C 0,0 C 0,0 km/h (0 Bft)
05.01.2016 09:00 23,4 C 0,6 C 48 % 97 % 997,9 hPa 0,0 l/m 0,0 km/h (0 Bft) N 0,00 h 0,0 UV-I 16 W/m 0,2 C 0,6 C 0,0 km/h (0 Bft)
05.01.2016 10:00 23,6 C 0,9 C 46 % 97 % 998,3 hPa 0,0 l/m 0,1 km/h (0 Bft) S 0,00 h 0,0 UV-I 24 W/m 0,5 C 0,9 C 0,7 km/h (0 Bft)
05.01.2016 11:00 23,5 C 1,3 C 44 % 97 % 998,2 hPa 0,0 l/m 0,0 km/h (0 Bft) S 0,00 h 0,5 UV-I 64 W/m 0,9 C 1,3 C 0,2 km/h (0 Bft)
05.01.2016 12:00 23,6 C 1,6 C 45 % 96 % 998,0 hPa 0,0 l/m 0,0 km/h (0 Bft) N 0,00 h 0,0 UV-I 56 W/m 1,1 C 1,6 C 0,0 km/h (0 Bft)
05.01.2016 13:00 23,6 C 1,4 C 44 % 96 % 997,9 hPa 0,2 l/m 0,0 km/h (0 Bft) N 0,00 h 0,5 UV-I 85 W/m 0,8 C 1,4 C 0,0 km/h (0 Bft)
05.01.2016 14:00 23,4 C 1,4 C 45 % 96 % 998,0 hPa 0,0 l/m 0,1 km/h (0 Bft) S 0,00 h 0,0 UV-I 42 W/m 0,9 C 1,4 C 0,5 km/h (0 Bft)
05.01.2016 15:00 23,8 C 1,4 C 45 % 96 % 998,4 hPa 0,0 l/m 0,0 km/h (0 Bft) N 0,00 h 0,0 UV-I 19 W/m 0,8 C 1,4 C 0,0 km/h (0 Bft)
05.01.2016 16:00 23,8 C 1,2 C 46 % 96 % 998,9 hPa 0,2 l/m 0,0 km/h (0 Bft) N 0,00 h 0,0 UV-I 10 W/m 0,7 C 1,2 C 0,0 km/h (0 Bft)
05.01.2016 17:00 23,6 C 1,1 C 44 % 96 % 999,2 hPa 0,0 l/m 0,0 km/h (0 Bft) N 0,00 h 0,0 UV-I 0 W/m 0,5 C 1,1 C 0,0 km/h (0 Bft)
05.01.2016 18:00 23,9 C 1,2 C 46 % 97 % 999,4 hPa 0,0 l/m 0,0 km/h (0 Bft) N 0,00 h 0,0 UV-I 0 W/m 0,8 C 1,2 C 0,1 km/h (0 Bft)
05.01.2016 19:00 24,3 C 1,3 C 48 % 97 % 999,6 hPa 0,0 l/m 0,0 km/h (0 Bft) N 0,00 h 0,0 UV-I 0 W/m 0,9 C 1,3 C 0,0 km/h (0 Bft)
05.01.2016 20:00 24,1 C 1,4 C 48 % 97 % 999,7 hPa 0,0 l/m 0,0 km/h (0 Bft) N 0,00 h 0,0 UV-I 0 W/m 1,0 C 1,4 C 0,0 km/h (0 Bft)
05.01.2016 21:00 23,9 C 1,5 C 48 % 97 % 999,9 hPa 0,0 l/m 0,0 km/h (0 Bft) N 0,00 h 0,0 UV-I 0 W/m 1,1 C 1,5 C 0,0 km/h (0 Bft)
05.01.2016 22:00 23,9 C 1,4 C 49 % 97 % 999,9 hPa 0,0 l/m 0,0 km/h (0 Bft) N 0,00 h 0,0 UV-I 0 W/m 1,0 C 1,4 C 0,0 km/h (0 Bft)
05.01.2016 23:00 23,7 C 1,4 C 50 % 97 % 999,8 hPa 0,0 l/m 0,0 km/h (0 Bft) N 0,00 h 0,0 UV-I 0 W/m 1,0 C 1,4 C 0,0 km/h (0 Bft)
06.01.2016 00:00 23,4 C 1,3 C 50 % 97 % 999,8 hPa 0,0 l/m 0,0 km/h (0 Bft) N 0,00 h 0,0 UV-I 0 W/m 0,9 C 1,3 C 0,0 km/h (0 Bft)
06.01.2016 01:00 23,2 C 1,5 C 50 % 97 % 999,8 hPa 0,0 l/m 0,1 km/h (0 Bft) S 0,00 h 0,0 UV-I 0 W/m 1,1 C 1,5 C 0,7 km/h (0 Bft)
06.01.2016 02:00 23,2 C 1,3 C 50 % 97 % 1000,0 hPa 0,0 l/m 0,2 km/h (0 Bft) S-SO 0,00 h 0,0 UV-I 0 W/m 0,9 C 1,3 C 0,7 km/h (0 Bft)
06.01.2016 03:00 23,1 C 1,1 C 51 % 97 % 999,9 hPa 0,2 l/m 0,3 km/h (0 Bft) S-SO 0,00 h 0,0 UV-I 0 W/m 0,7 C 1,1 C 1,0 km/h (0 Bft)
06.01.2016 04:00 23,0 C 0,9 C 51 % 97 % 999,8 hPa 0,4 l/m 0,0 km/h (0 Bft) N 0,00 h 0,0 UV-I 0 W/m 0,5 C 0,9 C 0,0 km/h (0 Bft)
06.01.2016 05:00 23,2 C 0,7 C 52 % 97 % 999,8 hPa 0,0 l/m 0,0 km/h (0 Bft) N 0,00 h 0,0 UV-I 0 W/m 0,3 C 0,7 C 0,0 km/h (0 Bft)
06.01.2016 06:00 23,4 C 0,7 C 53 % 97 % 1000,0 hPa 0,0 l/m 0,0 km/h (0 Bft) N 0,00 h 0,0 UV-I 0 W/m 0,3 C 0,7 C 0,0 km/h (0 Bft)
06.01.2016 07:00 23,4 C 0,9 C 53 % 97 % 1000,3 hPa 0,2 l/m 0,3 km/h (0 Bft) S 0,00 h 0,0 UV-I 0 W/m 0,5 C 0,9 C 1,2 km/h (1 Bft)
06.01.2016 08:00 23,6 C 1,4 C 53 % 97 % 1000,6 hPa 0,0 l/m 0,6 km/h (0 Bft) S 0,00 h 0,0 UV-I 9 W/m 1,0 C 1,4 C 2,1 km/h (1 Bft)
06.01.2016 09:00 23,7 C 1,6 C 49 % 98 % 1001,2 hPa 0,0 l/m 0,2 km/h (0 Bft) W-SW 0,00 h 0,0 UV-I 16 W/m 1,2 C 1,6 C 0,6 km/h (0 Bft)
06.01.2016 10:00 23,7 C 1,9 C 48 % 98 % 1001,5 hPa 0,0 l/m 0,1 km/h (0 Bft) SW 0,00 h 0,0 UV-I 57 W/m 1,5 C 1,9 C 0,4 km/h (0 Bft)
06.01.2016 11:00 23,9 C 2,1 C 48 % 97 % 1001,3 hPa 0,0 l/m 0,5 km/h (0 Bft) SW 0,00 h 0,5 UV-I 66 W/m 1,7 C 2,1 C 1,7 km/h (1 Bft)
06.01.2016 12:00 23,7 C 2,1 C 47 % 97 % 1001,1 hPa 0,0 l/m 0,2 km/h (0 Bft) W-SW 0,00 h 0,5 UV-I 45 W/m 1,7 C 2,1 C 0,8 km/h (0 Bft)
06.01.2016 13:00 23,7 C 2,1 C 46 % 96 % 1001,1 hPa 0,0 l/m 0,1 km/h (0 Bft) S 0,00 h 0,0 UV-I 47 W/m 1,6 C 2,1 C 0,3 km/h (0 Bft)
06.01.2016 14:00 23,6 C 2,2 C 44 % 96 % 1001,2 hPa 0,0 l/m 0,0 km/h (0 Bft) N 0,00 h 0,0 UV-I 35 W/m 1,6 C 2,2 C 0,0 km/h (0 Bft)
06.01.2016 15:00 23,4 C 2,1 C 44 % 96 % 1001,5 hPa 0,0 l/m 0,0 km/h (0 Bft) S-SO 0,00 h 0,0 UV-I 13 W/m 1,6 C 2,1 C 0,1 km/h (0 Bft)
06.01.2016 16:00 23,5 C 1,9 C 46 % 96 % 1001,8 hPa 0,0 l/m 0,0 km/h (0 Bft) N 0,00 h 0,0 UV-I 5 W/m 1,4 C 1,9 C 0,0 km/h (0 Bft)
06.01.2016 17:00 23,7 C 1,8 C 46 % 96 % 1001,9 hPa 0,0 l/m 0,0 km/h (0 Bft) N 0,00 h 0,0 UV-I 0 W/m 1,3 C 1,8 C 0,0 km/h (0 Bft)
06.01.2016 18:00 23,6 C 1,6 C 46 % 97 % 1002,2 hPa 0,0 l/m 0,1 km/h (0 Bft) W-SW 0,00 h 0,0 UV-I 0 W/m 1,1 C 1,6 C 0,3 km/h (0 Bft)
06.01.2016 19:00 23,3 C 1,5 C 45 % 97 % 1002,2 hPa 0,0 l/m 0,0 km/h (0 Bft) N 0,00 h 0,0 UV-I 0 W/m 1,0 C 1,5 C 0,0 km/h (0 Bft)
06.01.2016 20:00 23,4 C 1,4 C 46 % 97 % 1002,3 hPa 0,0 l/m 0,0 km/h (0 Bft) N 0,00 h 0,0 UV-I 0 W/m 1,0 C 1,4 C 0,0 km/h (0 Bft)
06.01.2016 21:00 23,5 C 1,4 C 46 % 97 % 1002,4 hPa 0,0 l/m 0,0 km/h (0 Bft) N 0,00 h 0,0 UV-I 0 W/m 1,0 C 1,4 C 0,0 km/h (0 Bft)
06.01.2016 22:00 23,4 C 1,3 C 47 % 97 % 1002,4 hPa 0,0 l/m 0,0 km/h (0 Bft) N 0,00 h 0,0 UV-I 0 W/m 0,9 C 1,3 C 0,0 km/h (0 Bft)
06.01.2016 23:00 23,3 C 1,3 C 47 % 97 % 1002,6 hPa 0,0 l/m 0,0 km/h (0 Bft) N 0,00 h 0,0 UV-I 0 W/m 0,8 C 1,3 C 0,1 km/h (0 Bft)
07.01.2016 00:00 23,1 C 1,2 C 47 % 97 % 1002,8 hPa 0,0 l/m 0,0 km/h (0 Bft) N 0,00 h 0,0 UV-I 0 W/m 0,8 C 1,2 C 0,0 km/h (0 Bft)
07.01.2016 01:00 22,9 C 1,1 C 48 % 98 % 1002,9 hPa 0,0 l/m 0,0 km/h (0 Bft) N 0,00 h 0,0 UV-I 0 W/m 0,8 C 1,1 C 0,0 km/h (0 Bft)
07.01.2016 02:00 22,9 C 1,2 C 48 % 98 % 1002,9 hPa 0,0 l/m 0,0 km/h (0 Bft) N 0,00 h 0,0 UV-I 0 W/m 0,9 C 1,2 C 0,0 km/h (0 Bft)
07.01.2016 03:00 22,8 C 1,2 C 49 % 98 % 1003,2 hPa 0,0 l/m 0,0 km/h (0 Bft) SW 0,00 h 0,0 UV-I 0 W/m 0,9 C 1,2 C 0,2 km/h (0 Bft)
07.01.2016 04:00 22,8 C 1,0 C 50 % 98 % 1003,3 hPa 0,0 l/m 0,0 km/h (0 Bft) N 0,00 h 0,0 UV-I 0 W/m 0,8 C 1,0 C 0,0 km/h (0 Bft)
07.01.2016 05:00 22,7 C 1,0 C 50 % 98 % 1003,0 hPa 0,0 l/m 0,0 km/h (0 Bft) S 0,00 h 0,0 UV-I 0 W/m 0,7 C 1,0 C 0,2 km/h (0 Bft)
07.01.2016 06:00 22,7 C 0,9 C 51 % 98 % 1002,7 hPa 0,0 l/m 0,0 km/h (0 Bft) N 0,00 h 0,0 UV-I 0 W/m 0,6 C 0,9 C 0,0 km/h (0 Bft)
07.01.2016 07:00 22,7 C 1,0 C 51 % 98 % 1003,1 hPa 0,0 l/m 0,0 km/h (0 Bft) N 0,00 h 0,0 UV-I 0 W/m 0,7 C 1,0 C 0,1 km/h (0 Bft)
07.01.2016 08:00 22,7 C 1,1 C 51 % 98 % 1003,0 hPa 0,0 l/m 0,3 km/h (0 Bft) S-SO 0,00 h 0,0 UV-I 10 W/m 0,8 C 1,1 C 1,2 km/h (1 Bft)
07.01.2016 09:00 22,9 C 1,3 C 52 % 98 % 1002,7 hPa 0,0 l/m 1,1 km/h (1 Bft) S-SO 0,00 h 0,0 UV-I 31 W/m 1,0 C 1,3 C 1,9 km/h (1 Bft)
07.01.2016 10:00 22,9 C 1,6 C 50 % 98 % 1002,3 hPa 0,0 l/m 1,5 km/h (1 Bft) SO 0,00 h 0,5 UV-I 66 W/m 1,3 C 1,6 C 3,3 km/h (1 Bft)
07.01.2016 11:00 23,0 C 2,4 C 50 % 96 % 1001,1 hPa 0,0 l/m 3,0 km/h (1 Bft) SO 0,13 h 0,6 UV-I 99 W/m 1,8 C 2,3 C 6,4 km/h (2 Bft)
07.01.2016 12:00 23,2 C 2,9 C 49 % 92 % 1000,3 hPa 0,0 l/m 7,4 km/h (2 Bft) SO 0,10 h 0,6 UV-I 95 W/m 1,8 C 1,3 C 11,6 km/h (2 Bft)
07.01.2016 13:00 23,1 C 2,8 C 46 % 92 % 999,3 hPa 0,0 l/m 5,1 km/h (1 Bft) SO 0,00 h 0,5 UV-I 66 W/m 1,6 C 2,3 C 9,0 km/h (2 Bft)
07.01.2016 14:00 23,3 C 2,8 C 46 % 91 % 998,4 hPa 0,0 l/m 3,3 km/h (1 Bft) O-SO 0,00 h 0,0 UV-I 31 W/m 1,5 C 2,8 C 6,2 km/h (2 Bft)
07.01.2016 15:00 23,2 C 2,5 C 44 % 91 % 998,3 hPa 0,0 l/m 2,7 km/h (1 Bft) SO 0,00 h 0,0 UV-I 21 W/m 1,2 C 2,3 C 6,2 km/h (2 Bft)
07.01.2016 16:00 23,3 C 1,9 C 45 % 92 % 998,3 hPa 0,0 l/m 1,4 km/h (1 Bft) SO 0,00 h 0,0 UV-I 7 W/m 0,8 C 1,8 C 4,0 km/h (1 Bft)
07.01.2016 17:00 23,3 C 1,5 C 45 % 93 % 998,5 hPa 0,0 l/m 3,3 km/h (1 Bft) SO 0,00 h 0,0 UV-I 0 W/m 0,5 C 1,1 C 6,4 km/h (2 Bft)
07.01.2016 18:00 23,5 C 1,2 C 47 % 94 % 998,6 hPa 0,0 l/m 5,6 km/h (1 Bft) SO 0,00 h 0,0 UV-I 0 W/m 0,3 C 0,4 C 10,4 km/h (2 Bft)
07.01.2016 19:00 23,4 C 1,3 C 45 % 94 % 998,9 hPa 0,0 l/m 3,1 km/h (1 Bft) SO 0,00 h 0,0 UV-I 0 W/m 0,4 C 1,1 C 6,4 km/h (2 Bft)
07.01.2016 20:00 22,7 C 1,2 C 41 % 95 % 999,0 hPa 0,2 l/m 0,5 km/h (0 Bft) SO 0,00 h 0,0 UV-I 0 W/m 0,4 C 1,2 C 1,6 km/h (1 Bft)
07.01.2016 21:00 22,8 C 1,2 C 43 % 96 % 998,8 hPa 0,4 l/m 5,8 km/h (2 Bft) S-SO 0,00 h 0,0 UV-I 0 W/m 0,7 C 0,2 C 9,9 km/h (2 Bft)
07.01.2016 22:00 23,0 C 1,5 C 45 % 96 % 998,8 hPa 0,2 l/m 7,5 km/h (2 Bft) S 0,00 h 0,0 UV-I 0 W/m 0,9 C -0,3 C 13,2 km/h (3 Bft)
07.01.2016 23:00 22,9 C 2,1 C 45 % 97 % 999,4 hPa 0,0 l/m 5,2 km/h (1 Bft) SW 0,00 h 0,0 UV-I 0 W/m 1,6 C 1,7 C 10,5 km/h (2 Bft)
08.01.2016 00:00 22,7 C 2,6 C 46 % 97 % 999,8 hPa 0,2 l/m 7,6 km/h (2 Bft) SW 0,00 h 0,0 UV-I 0 W/m 2,1 C 1,2 C 15,7 km/h (3 Bft)
08.01.2016 01:00 22,7 C 3,3 C 47 % 95 % 1000,5 hPa 0,0 l/m 13,5 km/h (3 Bft) W-SW 0,00 h 0,0 UV-I 0 W/m 2,5 C -1,8 C 23,5 km/h (4 Bft)
08.01.2016 02:00 22,6 C 3,4 C 48 % 92 % 1002,1 hPa 0,0 l/m 12,5 km/h (3 Bft) W-SW 0,00 h 0,0 UV-I 0 W/m 2,3 C -1,2 C 20,7 km/h (4 Bft)
08.01.2016 03:00 22,6 C 3,1 C 48 % 90 % 1002,9 hPa 0,0 l/m 8,8 km/h (2 Bft) W-SW 0,00 h 0,0 UV-I 0 W/m 1,7 C 0,8 C 15,0 km/h (3 Bft)
08.01.2016 04:00 22,7 C 2,7 C 49 % 91 % 1003,7 hPa 0,0 l/m 7,5 km/h (2 Bft) W-SW 0,00 h 0,0 UV-I 0 W/m 1,3 C 1,3 C 12,5 km/h (3 Bft)
08.01.2016 05:00 22,7 C 2,5 C 49 % 92 % 1004,1 hPa 0,0 l/m 4,6 km/h (1 Bft) SW 0,00 h 0,0 UV-I 0 W/m 1,3 C 2,0 C 8,7 km/h (2 Bft)
08.01.2016 06:00 22,8 C 2,0 C 49 % 93 % 1004,9 hPa 0,4 l/m 7,2 km/h (2 Bft) W-SW 0,00 h 0,0 UV-I 0 W/m 1,1 C 0,0 C 12,0 km/h (2 Bft)
08.01.2016 07:00 22,8 C 1,6 C 50 % 94 % 1005,4 hPa 0,0 l/m 2,5 km/h (1 Bft) SW 0,00 h 0,0 UV-I 0 W/m 0,7 C 1,4 C 4,2 km/h (1 Bft)
08.01.2016 08:00 22,8 C 2,1 C 50 % 91 % 1006,0 hPa 0,0 l/m 8,5 km/h (2 Bft) SW 0,00 h 0,0 UV-I 20 W/m 0,7 C -0,0 C 14,2 km/h (3 Bft)
08.01.2016 09:00 23,0 C 2,6 C 48 % 90 % 1006,6 hPa 0,0 l/m 8,3 km/h (2 Bft) SW 0,00 h 0,0 UV-I 82 W/m 1,1 C 0,8 C 14,0 km/h (3 Bft)
08.01.2016 10:00 23,1 C 3,4 C 46 % 86 % 1007,2 hPa 0,0 l/m 7,0 km/h (2 Bft) SW 0,60 h 0,5 UV-I 176 W/m 1,2 C 2,3 C 12,8 km/h (3 Bft)
08.01.2016 11:00 23,2 C 3,8 C 43 % 82 % 1007,3 hPa 0,0 l/m 10,9 km/h (2 Bft) W-SW 0,77 h 0,7 UV-I 246 W/m 1,0 C 0,3 C 16,4 km/h (3 Bft)
08.01.2016 12:00 23,0 C 3,7 C 40 % 80 % 1007,0 hPa 0,0 l/m 11,4 km/h (2 Bft) W-SW 0,53 h 0,8 UV-I 166 W/m 0,5 C -0,2 C 17,8 km/h (3 Bft)
08.01.2016 13:00 22,9 C 4,5 C 39 % 78 % 1007,1 hPa 0,0 l/m 2,7 km/h (1 Bft) W-SW 0,75 h 0,7 UV-I 186 W/m 1,1 C 4,2 C 5,7 km/h (1 Bft)
08.01.2016 14:00 22,7 C 4,5 C 38 % 77 % 1006,9 hPa 0,0 l/m 0,2 km/h (0 Bft) SW 0,00 h 0,5 UV-I 57 W/m 0,8 C 4,5 C 1,2 km/h (1 Bft)
08.01.2016 15:00 22,8 C 3,6 C 39 % 78 % 1006,4 hPa 0,0 l/m 0,0 km/h (0 Bft) N 0,00 h 0,0 UV-I 14 W/m 0,1 C 3,6 C 0,1 km/h (0 Bft)
08.01.2016 16:00 23,1 C 1,8 C 40 % 84 % 1006,9 hPa 0,0 l/m 0,0 km/h (0 Bft) N 0,00 h 0,0 UV-I 6 W/m -0,6 C 1,8 C 0,0 km/h (0 Bft)
08.01.2016 17:00 23,3 C 0,9 C 42 % 87 % 1007,4 hPa 0,0 l/m 0,0 km/h (0 Bft) N 0,00 h 0,0 UV-I 0 W/m -1,0 C 0,9 C 0,0 km/h (0 Bft)
08.01.2016 18:00 23,2 C -0,2 C 40 % 89 % 1007,7 hPa 0,0 l/m 0,3 km/h (0 Bft) O-NO 0,00 h 0,0 UV-I 0 W/m -1,9 C -0,2 C 0,6 km/h (0 Bft)
08.01.2016 19:00 23,3 C -1,2 C 41 % 90 % 1007,4 hPa 0,0 l/m 0,0 km/h (0 Bft) N 0,00 h 0,0 UV-I 0 W/m -2,6 C -1,2 C 0,0 km/h (0 Bft)
08.01.2016 20:00 23,0 C -1,9 C 41 % 92 % 1007,4 hPa 0,0 l/m 0,0 km/h (0 Bft) N 0,00 h 0,0 UV-I 0 W/m -3,0 C -1,9 C 0,0 km/h (0 Bft)
08.01.2016 21:00 23,3 C -2,1 C 42 % 93 % 1007,1 hPa 0,0 l/m 0,0 km/h (0 Bft) N 0,00 h 0,0 UV-I 0 W/m -3,1 C -2,1 C 0,0 km/h (0 Bft)
08.01.2016 22:00 23,1 C -2,4 C 43 % 94 % 1007,3 hPa 0,0 l/m 0,0 km/h (0 Bft) N 0,00 h 0,0 UV-I 0 W/m -3,2 C -2,4 C 0,0 km/h (0 Bft)
08.01.2016 23:00 22,9 C -2,7 C 43 % 94 % 1006,8 hPa 0,0 l/m 0,0 km/h (0 Bft) N 0,00 h 0,0 UV-I 0 W/m -3,6 C -2,7 C 0,0 km/h (0 Bft)
09.01.2016 00:00 22,7 C -2,9 C 44 % 94 % 1006,9 hPa 0,0 l/m 0,0 km/h (0 Bft) N 0,00 h 0,0 UV-I 0 W/m -3,7 C -2,9 C 0,0 km/h (0 Bft)
09.01.2016 01:00 22,6 C -3,1 C 44 % 94 % 1007,2 hPa 0,0 l/m 0,0 km/h (0 Bft) N 0,00 h 0,0 UV-I 0 W/m -3,9 C -3,1 C 0,0 km/h (0 Bft)
09.01.2016 02:00 22,4 C -3,4 C 44 % 94 % 1007,0 hPa 0,0 l/m 0,0 km/h (0 Bft) N 0,00 h 0,0 UV-I 0 W/m -4,1 C -3,4 C 0,0 km/h (0 Bft)
09.01.2016 03:00 22,4 C -3,3 C 45 % 95 % 1007,0 hPa 0,0 l/m 0,0 km/h (0 Bft) N 0,00 h 0,0 UV-I 0 W/m -4,0 C -3,3 C 0,0 km/h (0 Bft)
09.01.2016 04:00 22,6 C -3,2 C 45 % 95 % 1006,8 hPa 0,0 l/m 0,0 km/h (0 Bft) N 0,00 h 0,0 UV-I 0 W/m -3,9 C -3,2 C 0,0 km/h (0 Bft)
09.01.2016 05:00 22,6 C -2,9 C 46 % 95 % 1006,6 hPa 0,0 l/m 0,0 km/h (0 Bft) N 0,00 h 0,0 UV-I 0 W/m -3,6 C -2,9 C 0,0 km/h (0 Bft)
09.01.2016 06:00 22,6 C -2,6 C 46 % 96 % 1006,6 hPa 0,0 l/m 0,0 km/h (0 Bft) N 0,00 h 0,0 UV-I 0 W/m -3,2 C -2,6 C 0,0 km/h (0 Bft)
09.01.2016 07:00 22,6 C -2,1 C 47 % 96 % 1006,8 hPa 0,0 l/m 0,0 km/h (0 Bft) N 0,00 h 0,0 UV-I 0 W/m -2,7 C -2,1 C 0,0 km/h (0 Bft)
09.01.2016 08:00 22,7 C -1,7 C 47 % 96 % 1006,8 hPa 0,0 l/m 0,0 km/h (0 Bft) N 0,00 h 0,0 UV-I 13 W/m -2,2 C -1,7 C 0,0 km/h (0 Bft)
09.01.2016 09:00 22,9 C -1,0 C 47 % 96 % 1006,9 hPa 0,0 l/m 0,0 km/h (0 Bft) N 0,00 h 0,0 UV-I 35 W/m -1,5 C -1,0 C 0,0 km/h (0 Bft)
09.01.2016 10:00 23,0 C -0,0 C 47 % 97 % 1006,7 hPa 0,0 l/m 0,0 km/h (0 Bft) N 0,00 h 0,0 UV-I 44 W/m -0,5 C -0,0 C 0,0 km/h (0 Bft)
09.01.2016 11:00 23,2 C 0,9 C 46 % 97 % 1006,3 hPa 0,0 l/m 0,0 km/h (0 Bft) N 0,00 h 0,0 UV-I 64 W/m 0,5 C 0,9 C 0,0 km/h (0 Bft)
09.01.2016 12:00 23,2 C 1,5 C 46 % 97 % 1005,9 hPa 0,0 l/m 0,0 km/h (0 Bft) N 0,00 h 0,0 UV-I 68 W/m 1,0 C 1,5 C 0,0 km/h (0 Bft)
09.01.2016 13:00 23,3 C 1,8 C 46 % 96 % 1005,7 hPa 0,0 l/m 0,0 km/h (0 Bft) N 0,00 h 0,0 UV-I 41 W/m 1,2 C 1,8 C 0,0 km/h (0 Bft)
09.01.2016 14:00 23,0 C 1,9 C 45 % 96 % 1005,6 hPa 0,0 l/m 0,0 km/h (0 Bft) N 0,00 h 0,0 UV-I 32 W/m 1,3 C 1,9 C 0,0 km/h (0 Bft)
09.01.2016 15:00 22,9 C 2,1 C 45 % 96 % 1005,8 hPa 0,0 l/m 0,0 km/h (0 Bft) N 0,00 h 0,0 UV-I 17 W/m 1,5 C 2,1 C 0,0 km/h (0 Bft)
09.01.2016 16:00 23,0 C 1,9 C 46 % 96 % 1006,1 hPa 0,0 l/m 0,0 km/h (0 Bft) N 0,00 h 0,0 UV-I 6 W/m 1,3 C 1,9 C 0,0 km/h (0 Bft)
09.01.2016 17:00 23,2 C 1,6 C 46 % 96 % 1005,7 hPa 0,0 l/m 0,0 km/h (0 Bft) N 0,00 h 0,0 UV-I 0 W/m 1,0 C 1,6 C 0,0 km/h (0 Bft)
09.01.2016 18:00 23,2 C 1,6 C 46 % 96 % 1005,2 hPa 0,0 l/m 0,0 km/h (0 Bft) N 0,00 h 0,0 UV-I 0 W/m 1,1 C 1,6 C 0,0 km/h (0 Bft)
09.01.2016 19:00 23,2 C 1,7 C 46 % 96 % 1005,2 hPa 0,0 l/m 0,0 km/h (0 Bft) N 0,00 h 0,0 UV-I 0 W/m 1,1 C 1,7 C 0,0 km/h (0 Bft)
09.01.2016 20:00 23,1 C 1,7 C 44 % 96 % 1005,1 hPa 0,0 l/m 0,0 km/h (0 Bft) N 0,00 h 0,0 UV-I 0 W/m 1,2 C 1,7 C 0,0 km/h (0 Bft)
09.01.2016 21:00 23,2 C 1,8 C 46 % 96 % 1004,5 hPa 0,0 l/m 0,0 km/h (0 Bft) N 0,00 h 0,0 UV-I 0 W/m 1,2 C 1,8 C 0,0 km/h (0 Bft)
09.01.2016 22:00 23,3 C 1,8 C 47 % 96 % 1004,2 hPa 0,0 l/m 0,0 km/h (0 Bft) N 0,00 h 0,0 UV-I 0 W/m 1,2 C 1,8 C 0,0 km/h (0 Bft)
09.01.2016 23:00 23,1 C 1,8 C 45 % 96 % 1003,9 hPa 0,0 l/m 0,0 km/h (0 Bft) N 0,00 h 0,0 UV-I 0 W/m 1,3 C 1,8 C 0,0 km/h (0 Bft)
10.01.2016 00:00 22,7 C 1,7 C 45 % 96 % 1003,5 hPa 0,0 l/m 0,0 km/h (0 Bft) N 0,00 h 0,0 UV-I 0 W/m 1,1 C 1,7 C 0,0 km/h (0 Bft)
10.01.2016 01:00 22,6 C 1,7 C 46 % 96 % 1003,0 hPa 0,0 l/m 0,0 km/h (0 Bft) N 0,00 h 0,0 UV-I 0 W/m 1,2 C 1,7 C 0,0 km/h (0 Bft)
10.01.2016 02:00 22,5 C 1,7 C 46 % 97 % 1002,4 hPa 0,0 l/m 0,0 km/h (0 Bft) N 0,00 h 0,0 UV-I 0 W/m 1,3 C 1,7 C 0,0 km/h (0 Bft)
10.01.2016 03:00 22,4 C 1,8 C 47 % 97 % 1002,0 hPa 0,0 l/m 0,0 km/h (0 Bft) N 0,00 h 0,0 UV-I 0 W/m 1,4 C 1,8 C 0,0 km/h (0 Bft)
10.01.2016 04:00 22,6 C 1,9 C 47 % 97 % 1001,4 hPa 0,0 l/m 0,0 km/h (0 Bft) N 0,00 h 0,0 UV-I 0 W/m 1,5 C 1,9 C 0,0 km/h (0 Bft)
10.01.2016 05:00 22,6 C 2,0 C 48 % 97 % 1000,9 hPa 0,0 l/m 0,0 km/h (0 Bft) S 0,00 h 0,0 UV-I 0 W/m 1,6 C 2,0 C 0,2 km/h (0 Bft)
10.01.2016 06:00 22,6 C 2,9 C 48 % 98 % 1000,5 hPa 0,0 l/m 1,1 km/h (1 Bft) S 0,00 h 0,0 UV-I 0 W/m 2,6 C 2,9 C 3,2 km/h (1 Bft)
10.01.2016 07:00 22,6 C 3,4 C 48 % 98 % 1000,1 hPa 0,0 l/m 1,8 km/h (1 Bft) S-SO 0,00 h 0,0 UV-I 0 W/m 3,1 C 3,4 C 3,6 km/h (1 Bft)
10.01.2016 08:00 22,7 C 3,6 C 49 % 98 % 999,8 hPa 0,0 l/m 3,0 km/h (1 Bft) S 0,00 h 0,0 UV-I 10 W/m 3,3 C 3,4 C 5,6 km/h (1 Bft)
10.01.2016 09:00 22,8 C 4,0 C 47 % 98 % 999,8 hPa 0,0 l/m 1,7 km/h (1 Bft) S 0,00 h 0,0 UV-I 19 W/m 3,7 C 4,0 C 3,8 km/h (1 Bft)
10.01.2016 10:00 22,8 C 4,2 C 46 % 98 % 1000,1 hPa 0,0 l/m 1,7 km/h (1 Bft) W 0,00 h 0,0 UV-I 16 W/m 3,9 C 4,1 C 4,2 km/h (1 Bft)
10.01.2016 11:00 22,7 C 4,1 C 46 % 98 % 999,9 hPa 0,0 l/m 1,7 km/h (1 Bft) S 0,00 h 0,0 UV-I 31 W/m 3,8 C 4,0 C 3,8 km/h (1 Bft)
10.01.2016 12:00 22,6 C 4,2 C 46 % 97 % 999,8 hPa 0,0 l/m 1,4 km/h (1 Bft) SW 0,00 h 0,0 UV-I 40 W/m 3,8 C 4,2 C 4,1 km/h (1 Bft)
10.01.2016 13:00 22,6 C 4,3 C 46 % 96 % 999,6 hPa 0,0 l/m 0,9 km/h (0 Bft) S 0,00 h 0,0 UV-I 33 W/m 3,7 C 4,3 C 3,0 km/h (1 Bft)
10.01.2016 14:00 22,8 C 4,1 C 47 % 95 % 999,6 hPa 0,0 l/m 3,2 km/h (1 Bft) S 0,00 h 0,0 UV-I 26 W/m 3,4 C 3,9 C 7,5 km/h (2 Bft)
10.01.2016 15:00 23,1 C 4,0 C 47 % 95 % 999,8 hPa 0,0 l/m 6,4 km/h (2 Bft) S 0,00 h 0,0 UV-I 19 W/m 3,3 C 2,9 C 11,1 km/h (2 Bft)
10.01.2016 16:00 23,1 C 3,7 C 46 % 95 % 999,3 hPa 0,0 l/m 8,7 km/h (2 Bft) S 0,00 h 0,0 UV-I 7 W/m 3,0 C 1,7 C 14,8 km/h (3 Bft)
10.01.2016 17:00 23,2 C 3,6 C 45 % 95 % 998,7 hPa 0,0 l/m 4,1 km/h (1 Bft) S-SO 0,00 h 0,0 UV-I 0 W/m 2,9 C 3,0 C 7,9 km/h (2 Bft)
10.01.2016 18:00 23,1 C 3,7 C 47 % 95 % 998,7 hPa 0,0 l/m 2,1 km/h (1 Bft) S 0,00 h 0,0 UV-I 0 W/m 3,0 C 3,7 C 4,9 km/h (1 Bft)
10.01.2016 19:00 23,2 C 4,1 C 48 % 95 % 998,4 hPa 0,0 l/m 3,3 km/h (1 Bft) S 0,00 h 0,0 UV-I 0 W/m 3,4 C 3,9 C 7,2 km/h (2 Bft)
10.01.2016 20:00 23,1 C 4,1 C 47 % 95 % 998,2 hPa 0,8 l/m 5,9 km/h (2 Bft) S 0,00 h 0,0 UV-I 0 W/m 3,3 C 3,3 C 11,3 km/h (2 Bft)
10.01.2016 21:00 23,3 C 3,5 C 48 % 95 % 998,2 hPa 1,2 l/m 7,2 km/h (2 Bft) S 0,00 h 0,0 UV-I 0 W/m 2,8 C 1,9 C 12,7 km/h (3 Bft)
10.01.2016 22:00 23,0 C 2,9 C 46 % 95 % 997,8 hPa 1,0 l/m 9,0 km/h (2 Bft) S 0,00 h 0,0 UV-I 0 W/m 2,3 C 0,6 C 15,5 km/h (3 Bft)
10.01.2016 23:00 22,8 C 3,1 C 47 % 96 % 997,4 hPa 0,6 l/m 9,9 km/h (2 Bft) S 0,00 h 0,0 UV-I 0 W/m 2,5 C 0,2 C 16,8 km/h (3 Bft)
Min-Datum _ 05.01.16 04.01.16 08.01.16 08.01.16 04.01.16 - 04.01.16 - - - - 04.01.16 04.01.16 04.01.16
_ Min-Zeit 03:22 01:24 18:25 14:57 13:21 - 00:21 - - - - 01:24 01:46 04:05
Minimum _ 22,2 C -6,2 C 34 % 75 % 995,7 hPa - 0,0 km/h (0 Bft) - - - - -7,6 C -14,1 C 0,0 km/h (0 Bft)
Max-Datum _ 05.01.16 08.01.16 04.01.16 06.01.16 08.01.16 10.01.16 08.01.16 - 08.01.16 08.01.16 08.01.16 10.01.16 08.01.16 08.01.16
_ Max-Zeit 19:14 13:53 10:24 08:26 18:11 21:00 11:47 - 11:13 11:31 11:03 10:11 13:53 02:17
Maximum _ 24,3 C 4,9 C 55 % 98 % 1007,8 hPa 1,2 l/m 22,5 km/h
W-SW (4 Bft)
- 0,03 h 0,9 UV-I 343 W/m 4,0 C 4,9 C 38,6 km/h
W-SW (5 Bft)
Durchschnitt _ 23,0 C 0,5 C 47 % 94 % 1001,3 hPa #9,6 l/m 2,0 km/h (1 Bft) S #2:53 h 0,6 UV-I 45 W/m -0,3 C 0,1 C 3,7 km/h (1 Bft)